Location: Newark
(37.8333°N, 119.5000°W)
Time: 03:28:12
(UTC+00:00)

Vanguard 3 - Visible Passes

Search period start: 25 August 2019 00:00
Search period end: 04 September 2019 00:00
Orbit: 508 x 3263 km, 33.3° (Epoch: 24 August)

Date Brightness Start Highest point End Pass type
(mag) Time Alt. Az. Time Alt. Az. Time Alt. Az.
25 Aug 8.6 05:00:26 10° WSW 05:02:00 16° SW 05:02:00 16° SW visible
26 Aug 7.5 03:45:30 10° W 03:50:12 35° SSW 03:52:12 21° SSE visible
27 Aug 8.5 04:44:37 10° WSW 04:46:58 17° SW 04:46:58 17° SW visible
28 Aug 7.9 03:29:12 10° W 03:34:18 33° SSW 03:37:11 15° SE visible
29 Aug 8.6 04:28:45 10° WSW 04:31:28 15° SSW 04:31:59 15° SSW visible
30 Aug 8.3 03:12:45 10° W 03:18:19 31° SSW 03:22:10 10° SE visible
31 Aug 8.9 04:12:52 10° WSW 04:15:23 13° SW 04:17:04 11° SSW visible
01 Sep 8.7 02:56:13 10° W 03:02:16 29° SSW 03:06:21 10° SSE visible
02 Sep 9.2 03:56:59 10° WSW 03:59:12 12° SW 04:01:07 10° SSW visible
